SCP
3 2 2 2 4 6 6 6 5 4 4 4 4 4 4 5 5 4 4 4 4 4 4 3 3 2 2 1 1 1 1 1 1 1 1 1 1 2 3 3 4 5 5
2 2 2 2 3 4 5 5 4 4 4 4 4 5 5 5 5 5 4 4 3 3 3 3 3 2 2 1 1 1 1 1 1 1 1 1 2 2 3 3 4 5 5
1 1 1 1 2 3 3 4 4 4 4 4 5 5 5 5 6 5 4 3 3 2 3 3 3 2 2 1 1 1 1 2 2 2 2 2 3 3 3 3 4 4 4
1 1 1 1 1 2 2 3 3 3 3 3 4 4 5 6 6 5 5 3 2 2 3 3 3 2 2 2 1 1 2 3 3 4 3 3 3 4 4 4 4 4 4
1 1 1 1 1 1 2 2 2 2 2 2 3 3 4 5 5 5 4 3 2 2 3 3 3 2 2 2 1 1 2 3 3 4 4 4 4 4 4 4 3 3 3
2 1 1 1 1 1 1 2 2 1 2 2 2 2 3 3 3 3 3 2 2 2 2 2 2 2 1 1 1 1 1 2 2 3 3 3 3 3 3 3 3 3 3
2 2 1 1 1 1 1 1 1 1 1 1 2 2 2 2 1 1 1 1 1 2 2 2 2 1 1 1 1 1 1 1 1 2 3 3 3 2 2 2 2 3 3
2 2 2 2 2 1 1 1 1 1 1 1 2 2 2 2 1 1 1 1 1 1 2 2 2 2 2 1 1 1 1 1 1 1 2 2 2 2 1 1 2 2 3
2 2 2 2 2 2 2 1 1 1 1 1 1 2 2 2 2 1 1 1 2 2 2 2 2 2 2 1 1 1 1 1 1 1 1 1 1 1 1 1 1 2 2
3 3 3 3 3 2 2 2 2 1 1 1 1 2 2 2 2 2 1 2 2 2 2 2 2 2 1 1 1 1 1 1 0 0 0 0 0 0 1 1 1 1 1
3 3 2 2 2 2 2 2 2 2 2 1 1 2 2 2 2 2 2 2 3 3 3 3 3 2 1 0 0 0 1 0 0 0 0 0 0 1 1 1 1 1 1
3 2 2 2 2 3 3 2 2 2 2 2 1 2 2 2 3 2 2 2 2 3 3 3 2 1 0 0 0 0 0 0 0 0 0 0 0 1 1 1 1 1 1
3 3 3 2 2 3 3 3 2 2 2 2 2 2 2 2 2 2 2 2 2 2 2 1 1 0 0 0 0 0 0 0 0 0 0 0 0 0 0 0 1 1 1
4 4 4 3 3 3 4 4 3 3 3 3 3 3 3 3 3 3 3 2 2 1 1 1 0 0 0 0 0 0 0 0 0 0 0 0 0 0 0 0 0 0 0
6 5 5 4 3 4 4 4 4 3 3 3 3 4 4 3 3 2 2 2 2 1 1 0 0 0 0 0 0 0 0 0 0 0 0 0 0 0 0 0 0 0 0
8 7 6 5 4 4 4 4 3 3 2 2 3 4 4 3 2 1 1 1 1 0 0 0 0 0 0 0 0 0 0 0 0 0 0 0 0 0 0 0 0 0 0
10 9 8 6 5 4 5 4 3 2 1 1 1 2 2 1 1 0 0 0 0 0 0 0 0 0 0 0 0 0 0 0 0 0 0 0 0 0 0 0 0 0 0
11 11 9 7 5 5 6 6 4 3 2 1 1 0 0 0 0 0 0 0 0 0 0 0 0 0 0 0 0 0 0 0 0 0 0 0 0 0 0 0 0 0 0
12 12 11 9 8 8 7 6 4 3 2 1 1 0 0 0 0 0 0 0 0 0 0 0 0 0 0 0 0 0 0 0 0 0 0 0 0 0 0 0 0 0 0
13 12 12 11 11 10 9 5 3 2 1 1 1 1 0 0 0 0 0 0 0 0 0 0 0 0 0 0 0 0 0 0 0 0 0 0 0 0 0 0 0 0 0
12 11 11 10 10 9 7 4 2 1 1 1 1 1 0 0 0 0 0 0 0 0 0 0 0 0 0 0 0 0 0 0 0 0 0 0 0 0 0 0 0 0 0
8 9 9 8 6 4 3 2 1 0 0 0 1 1 0 0 0 0 0 0 0 0 0 0 0 0 0 0 0 0 0 0 0 0 0 0 0 0 0 0 0 0 0
4 5 7 6 4 2 1 1 1 0 0 0 1 1 0 0 0 0 0 0 0 0 0 0 0 0 0 0 0 0 0 0 0 0 0 0 0 0 0 0 0 0 0
2 3 4 4 3 2 1 1 0 0 0 0 1 1 0 0 0 0 0 0 0 0 0 0 0 0 0 0 0 0 0 0 0 0 0 0 0 0 0 0 0 0 0
1 1 2 2 2 2 1 1 1 0 0 1 1 1 0 0 0 0 0 0 0 0 0 0 0 0 0 0 0 0 0 0 0 0 0 0 0 0 0 0 0 0 0
1 1 1 2 2 2 1 1 1 1 1 1 1 0 0 0 0 0 0 0 0 0 0 0 0 0 0 0 0 0 0 0 0 0 0 0 0 0 0 0 0 0 0
Wind_Speed
3 3 2 2 2 2 2 2 2 1 1 1 1 1 1 1 1 1 2 1 1 2 1 1 2 1 1 1 1 1 1 2 3 3 2 2 2 2 2 2 2 2 2
3 3 3 2 2 2 2 2 1 1 1 1 1 1 1 1 1 1 2 2 2 2 2 2 2 1 1 1 1 2 2 2 2 3 3 2 2 2 2 2 2 2 2
3 3 2 2 2 2 2 1 1 1 1 0 0 0 1 1 1 2 2 2 2 3 3 2 3 2 2 2 2 2 2 1 2 2 3 2 2 2 2 2 2 2 2
3 3 3 3 3 2 2 1 2 2 1 1 1 1 1 2 2 2 2 2 2 3 3 3 3 3 4 3 2 2 2 1 1 1 2 2 2 2 1 2 2 2 2
4 4 4 3 3 2 2 2 1 2 2 1 1 1 1 1 1 2 2 3 3 3 3 3 3 4 4 3 2 2 2 1 1 1 2 2 2 1 2 2 2 2 2
3 3 2 2 2 2 3 2 2 2 2 1 1 1 2 2 2 3 2 2 2 3 3 3 3 3 3 3 3 3 3 3 3 2 2 3 3 3 2 2 2 2 2
3 2 2 2 2 3 3 2 2 2 2 2 2 2 2 3 3 3 3 2 2 2 3 3 2 2 1 1 1 2 1 1 2 3 3 4 3 3 2 2 2 2 3
3 3 3 3 3 2 2 2 2 2 2 2 2 2 2 3 4 3 3 2 2 2 2 2 2 2 1 1 1 1 2 2 2 1 2 3 3 2 2 3 2 2 2
4 4 4 4 3 3 3 3 3 2 2 3 2 2 2 3 3 3 2 1 1 2 2 1 1 1 2 2 1 1 2 3 2 1 1 1 2 1 1 0 0 1 2
4 4 4 4 4 5 4 4 3 2 3 3 2 2 2 3 3 3 1 1 1 2 2 1 1 1 2 2 1 1 1 2 2 2 2 3 2 1 1 2 2 2 1
3 3 3 4 4 4 4 3 2 2 2 2 2 2 2 2 2 2 1 1 1 1 1 2 1 1 2 2 1 1 2 2 1 1 1 1 2 1 1 1 1 2 2
3 3 3 3 3 3 3 2 2 2 2 2 2 2 1 1 1 2 1 1 1 1 2 1 1 2 2 2 1 1 1 0 1 1 1 1 1 2 2 1 1 2 2
2 3 3 3 3 3 3 3 2 2 2 2 2 2 2 1 1 1 1 1 1 1 1 1 2 2 2 1 1 1 1 1 1 0 1 2 2 2 1 1 1 1 1
3 3 2 2 2 2 2 2 2 2 2 2 2 2 2 1 1 1 1 1 1 1 1 2 2 2 2 2 1 1 1 1 0 0 1 2 1 1 1 1 1 1 1
2 2 2 2 2 2 2 2 3 3 4 4 3 3 2 2 3 2 2 1 1 1 0 1 1 2 2 2 2 1 1 1 0 1 1 1 2 1 1 1 1 1 1
2 2 2 2 2 2 2 0 1 1 2 3 3 3 2 3 2 2 2 1 1 2 2 1 0 0 0 0 1 1 1 1 1 0 1 1 1 1 1 1 1 0 1
3 3 2 2 2 2 2 2 1 1 2 1 1 2 2 2 2 2 1 1 1 3 2 0 1 1 1 1 1 1 1 1 1 1 1 1 1 1 1 1 1 1 2
3 3 3 2 2 2 2 2 2 2 1 1 1 0 1 1 2 1 2 2 1 1 0 1 1 1 1 1 1 1 1 1 1 1 1 1 1 1 1 2 2 2 2
2 2 2 2 2 2 2 2 2 2 2 1 0 0 1 1 1 2 3 1 1 1 1 1 2 2 2 1 1 1 1 1 1 1 1 1 1 1 2 2 2 3 2
2 3 3 2 2 2 2 2 2 2 2 2 2 2 2 2 1 1 1 1 1 2 2 2 2 2 2 2 1 1 1 1 1 1 1 2 2 2 2 3 2 2 2
2 3 3 2 2 2 2 3 3 3 3 2 2 2 4 3 3 2 2 2 2 3 3 2 2 2 2 1 1 2 2 2 1 2 2 2 2 2 2 3 3 3 3
3 2 2 3 3 3 3 3 3 3 3 3 2 1 3 2 2 2 2 2 3 3 2 2 2 2 2 2 2 2 2 2 2 2 2 2 2 2 2 3 3 2 2
3 3 2 2 3 3 3 3 3 3 3 3 2 2 2 2 2 2 3 3 2 2 2 2 2 2 1 2 2 2 3 3 3 3 3 2 2 2 3 3 3 3 3
3 3 3 2 2 3 3 3 3 3 3 2 2 2 2 2 2 3 2 2 2 2 2 2 2 3 3 2 2 2 3 3 3 3 4 3 3 3 3 3 3 3 3
2 3 3 3 3 3 3 3 3 3 3 2 2 2 2 2 2 2 2 2 2 2 2 2 2 2 3 4 3 2 2 3 2 2 2 2 3 3 3 3 2 3 3
2 2 2 3 3 3 3 3 3 2 2 2 2 2 2 2 2 2 2 2 2 2 2 2 3 3 3 3 4 3 3 3 3 3 2 2 3 2 2 2 3 3 3
Wind_Direction
179 179 173 177 178 170 181 199 200 216 231 248 257 266 278 275 237 213 236 236 240 270 274 243 256 237 233 238 213 200 204 199 239 282 281 300 299 306 316 309 308 315 318
179 171 174 171 169 180 199 210 196 207 242 239 247 281 285 284 257 227 246 249 241 254 259 250 267 259 236 242 222 225 226 212 215 265 291 303 288 284 297 302 315 313 300
165 167 165 171 182 193 204 210 198 198 221 204 161 256 293 288 270 256 245 249 247 253 251 240 251 245 249 245 236 244 246 236 222 237 278 292 298 303 310 312 314 311 300
167 173 186 195 194 197 206 204 206 198 198 205 217 230 261 277 272 268 255 253 257 263 257 245 247 239 244 239 239 245 238 234 234 241 276 293 295 297 284 305 314 322 304
171 183 198 198 189 185 197 207 218 220 221 226 239 266 275 260 260 268 261 256 257 268 268 259 253 253 254 241 242 242 231 229 236 256 274 288 291 287 275 275 286 301 299
174 196 201 194 196 200 206 208 223 246 249 238 241 258 286 292 293 263 248 255 254 255 268 277 271 264 278 280 265 248 232 229 236 243 263 265 274 274 276 267 272 290 289
175 189 193 197 210 222 221 213 229 240 239 248 248 249 272 280 280 268 248 240 245 255 271 286 291 297 287 286 338 356 328 301 230 228 247 262 266 259 257 270 264 267 266
184 194 198 203 218 219 207 218 230 228 229 238 246 252 265 285 289 280 271 246 252 259 266 272 278 298 306 347 11 3 352 338 307 245 237 258 265 258 238 243 255 279 287
200 206 207 206 217 219 219 224 225 219 238 246 245 247 261 287 294 288 283 254 265 283 291 292 275 290 324 7 49 2 340 332 350 5 3 347 340 314 262 212 257 262 299
214 213 209 207 211 218 221 222 222 217 232 246 254 248 247 274 295 286 266 230 269 290 300 301 307 323 346 5 1 241 282 302 334 3 18 14 3 360 318 224 210 217 258
215 209 207 210 212 213 214 214 212 217 233 247 254 261 251 260 281 279 257 223 242 272 284 299 315 343 332 317 300 252 252 284 339 9 9 5 358 355 336 311 255 220 231
198 202 209 214 218 214 208 219 214 204 214 241 255 280 282 275 277 279 260 252 278 251 271 294 309 310 310 315 331 308 297 88 80 38 2 350 338 316 309 307 292 267 257
194 210 219 218 217 207 202 210 212 202 209 234 237 256 278 290 290 286 273 270 288 294 302 314 318 311 324 348 19 25 71 88 98 64 321 311 301 290 292 309 320 321 315
199 218 217 205 212 210 204 203 205 206 212 221 233 246 262 272 270 286 296 292 331 343 2 22 30 48 50 38 25 38 61 96 143 263 305 317 321 326 317 302 301 326 326
200 213 218 209 200 204 213 216 212 216 208 205 219 224 224 242 245 222 208 229 247 257 91 59 54 51 40 32 21 18 28 37 18 355 330 323 325 341 348 344 342 344 307
196 214 219 219 210 198 190 310 31 229 223 214 218 220 235 239 230 198 211 223 168 126 104 89 45 24 348 353 355 352 353 342 324 329 319 300 298 299 310 333 345 321 298
206 216 210 211 207 203 193 185 203 18 40 49 214 200 193 196 199 200 188 132 119 127 108 155 264 263 266 283 283 279 297 304 305 294 293 300 299 298 297 301 307 303 293
219 215 204 208 205 208 206 199 193 194 226 325 3 95 158 184 197 188 153 112 84 100 186 230 243 248 252 261 264 263 278 297 292 286 287 294 295 295 290 285 279 276 284
224 220 207 198 198 203 195 189 199 207 209 218 264 331 162 159 151 140 138 140 175 201 230 244 253 258 259 257 260 261 262 269 277 274 274 278 283 284 282 281 274 271 272
225 220 202 180 190 190 178 182 198 208 211 213 225 215 169 154 164 172 176 195 208 227 241 249 251 251 251 247 251 260 268 268 270 268 274 278 279 274 272 276 272 268 266
228 220 209 188 189 183 183 193 197 200 205 216 235 223 187 194 207 208 208 216 225 231 236 243 247 245 245 252 256 253 248 255 260 270 274 273 275 280 279 273 268 263 268
220 217 206 200 197 193 197 198 196 194 199 213 232 222 196 201 214 218 224 235 238 238 232 224 233 239 234 234 237 246 249 254 254 256 265 271 275 275 277 281 281 276 272
209 207 207 205 194 191 193 195 195 197 199 206 210 203 200 218 228 230 235 242 243 243 233 218 217 230 235 232 227 224 236 247 250 247 250 259 269 274 275 273 275 276 279
192 197 202 202 192 191 195 198 203 207 204 207 214 211 212 221 229 236 241 243 240 244 238 221 214 224 233 237 233 234 239 247 246 238 238 246 261 274 274 276 276 277 280
188 195 199 198 197 194 195 202 207 209 207 213 219 216 218 227 236 248 257 255 247 246 245 233 223 229 239 243 245 247 241 229 230 239 233 237 252 265 273 278 282 287 286
189 193 197 197 198 190 189 199 209 210 208 214 220 220 221 227 236 247 254 251 248 249 248 242 237 239 249 249 248 244 227 226 229 232 228 230 240 252 264 270 281 285 285